McDowell, KY (41647)

9:43 AM EST on February 08, 2016 (GMT -0500)
Sookeys Creek | | Change Station
CLOSE
Current Station
Personal Weather Station
Location: Kentucky, KY
Elevation: 850 ft
Nearby Weather Stations
Active Advisory: Winter Weather Advisory

Elev 850 ft 37.40 °N, 82.54 °W | Updated 30 seconds ago

Overcast
Overcast
36.5 °F
Feels Like 36 °F
N
0.0
Wind Variable Wind from West
Gusts 0.0 mph

Today
High -- | Low -- °F
--% Chance of Precip.
Yesterday
High -- | Low -- °F
Precip. -- in
Pressure 29.68 in
Visibility 10.0 miles
Clouds Mostly Cloudy 1200 ft
Overcast 1700 ft
Windchill 36 °F
Dew Point 34 °F
Humidity 91%
Rainfall 0.00 in
Snow Depth Not available.
7:28 AM 6:02 PM
Waning Crescent, 0% visible
METAR KSJS 081435Z AUTO 24006KT 10SM BKN012 OVC017 03/02 A2968 RMK AO2 T00270016
Pressure 29.68 in
Visibility 10.0 miles
Clouds Mostly Cloudy 1200 ft
Overcast 1700 ft
Windchill 36 °F
Dew Point 34 °F
Humidity 91%
Rainfall 0.00 in
Snow Depth Not available.
7:28 AM 6:02 PM
Waning Crescent, 0% visible
METAR KSJS 081435Z AUTO 24006KT 10SM BKN012 OVC017 03/02 A2968 RMK AO2 T00270016

10-Day Weather Forecast

Almanac

Astronomy

Feb. 08, 2016 Rise Set
Actual Time
Civil Twilight
Nautical Twilight
Astronomical Twilight
Moon
Length of Visible Light
Length of Day
Tomorrow will be .
, % of the Moon is Illuminated

Today's Extremes

State Highs State Lows

Community

WunderPhotos

Upload Photos

1,891,437 photos uploaded!

WunderBlog® & News

Nearby

Air Quality

  Air Quality AQ Index Pollutant
Not available.

Snow Depth

Station Depth Elevation

Earthquake Activity

City Distance Mag. Time & Date
Minimum magnitude displayed is 2.5.

Coastal Water Temperatures

Place Temperature

Stations

Nearby Weather Stations

Station Location Temp. Windchill Dew Point Humidity Wind Precip. Elev Updated Type
                   

Watches & Warnings

Winter Weather Advisory
Issued: 8:25 AM EST Feb. 8, 2016 – National Weather Service

... Winter Weather Advisory remains in effect from 6 PM this
evening to 6 am EST Wednesday...

* rain and snow showers will change to snow showers by this
evening... and temperatures will fall below freezing. Snow
showers will continue at times into Tuesday night... and then
begin to taper off.

* Snow will accumulate over a prolonged period... with totals by
late Tuesday night in the 2 to 4 inch range for most areas.

* As temperatures fall below freezing... roads and walkways will
become slippery... especially those which are untreated.
Localized heavy snow showers may also bring greatly reduced
visibility at times.

Precautionary/preparedness actions...

A Winter Weather Advisory for snow means that periods of snow
will cause primarily travel difficulties. Be prepared for snow
covered roads and limited visibilities... and use caution while
driving.



Hal/geogerian